Valletta, Malta

8:40 AM CEST on May 23, 2017 (GMT +0200)
Valletta

Weather History for 16597 - September, 2013

Change the Weather History Date:

Saturday, September 7, 2013

  Actual Average Record
Temperature  
Mean Temperature 76 °F -  
Max Temperature 83 °F 81 °F - ()
Min Temperature 69 °F 67 °F - ()
Cooling Degree Days 11    
Growing Degree Days 26 (Base 50)    
Moisture  
Dew Point 68 °F    
Average Humidity 72    
Maximum Humidity 94    
Minimum Humidity 46    
Precipitation  
Precipitation 0.00 in 0.07 in - ()
Sea Level Pressure  
Sea Level Pressure 30.03 in    
Wind  
Wind Speed 4 mph ()    
Max Wind Speed 8 mph    
Max Gust Speed -    
Visibility 7.1 miles    
Events      
T = Trace of Precipitation, MM = Missing Value Source: Averaged Metar Reports

Daily Weather History Graph

Daily Weather History Graph

Search for Another Location

Airport or City:

Trip Planner

Search our weather history database for the weather conditions in past years. The results will help you decide how hot, cold, wet, or windy it might be!

Date:

Astronomy

Sep. 07, 2013 Rise Set
Actual Time 6:38 AM CEST 7:21 PM CEST
Civil Twilight 6:12 AM CEST 7:46 PM CEST
Nautical Twilight 5:42 AM CEST 8:17 PM CEST
Astronomical Twilight 5:10 AM CEST 8:48 PM CEST
Moon 8:29 AM CEST (9/7) 8:15 PM CEST (9/7)
Length of Visible Light 13h 34m
Length of Day
12h 42m
Waxing Crescent, 4% of the Moon is Illuminated
Sep 7
Waxing Crescent
Sep 12
First Quarter
Sep 19
Full
Sep 27
Last Quarter
Oct 5
New

Hourly Weather History & Observations

Time (CEST) Temp. Heat Index Dew Point Humidity Pressure Visibility Wind Dir Wind Speed Gust Speed Precip Events Conditions
12:15 AM 73.4 °F - 71.6 °F 94% 29.98 in - West 4.6 mph - N/A   Clear
12:45 AM 75.2 °F - 69.8 °F 83% 29.98 in - West 5.8 mph - N/A   Clear
1:15 AM 73.4 °F - 68.0 °F 83% 29.98 in - Variable 2.3 mph - N/A   Clear
1:45 AM 73.4 °F - 68.0 °F 83% 29.98 in - Variable 1.2 mph - N/A   Clear
2:00 AM 73 °F - 67 °F 78% 29.98 in 9 mi West 2.3 mph - -  
2:15 AM 73.4 °F - 68.0 °F 83% 29.98 in - NW 2.3 mph - N/A   Clear
2:45 AM 71.6 °F - 66.2 °F 83% 29.98 in - North 3.5 mph - N/A   Clear
3:15 AM 73.4 °F - 68.0 °F 83% 29.98 in - North 4.6 mph - N/A   Clear
3:45 AM 73.4 °F - 69.8 °F 88% 29.98 in - North 4.6 mph - N/A   Clear
4:15 AM 71.6 °F - 68.0 °F 88% 29.98 in - North 4.6 mph - N/A   Clear
4:45 AM 71.6 °F - 68.0 °F 88% 29.98 in - North 4.6 mph - N/A   Clear
5:00 AM 71 °F - 69 °F 91% 29.98 in 6 mi North 4.6 mph - -  
5:15 AM 71.6 °F - 68.0 °F 88% 29.98 in - North 4.6 mph - N/A   Clear
5:45 AM 71.6 °F - 68.0 °F 88% 29.98 in - North 4.6 mph - N/A   Clear
6:15 AM 71.6 °F - 68.0 °F 88% 29.98 in - North 4.6 mph - N/A   Clear
6:45 AM 69.8 °F - 68.0 °F 94% 30.01 in 6.2 mi North 4.6 mph - N/A   Partly Cloudy
7:15 AM 71.6 °F - 68.0 °F 88% 30.01 in 6.2 mi WNW 3.5 mph - N/A   Partly Cloudy
7:45 AM 75.2 °F - 68.0 °F 78% 30.01 in 6.2 mi NW 3.5 mph - N/A   Partly Cloudy
8:00 AM 75 °F - 69 °F 75% 30.02 in 9 mi WNW 2.3 mph - -  
8:15 AM 77.0 °F - 68.0 °F 74% 30.04 in 6.2 mi NNW 4.6 mph - N/A   Partly Cloudy
8:45 AM 78.8 °F - 68.0 °F 69% 30.04 in - NNW 3.5 mph - N/A   Clear
9:15 AM 78.8 °F - 68.0 °F 69% 30.04 in - Variable 2.3 mph - N/A   Clear
9:45 AM 82.4 °F 85.4 °F 68.0 °F 62% 30.04 in - Variable 1.2 mph - N/A   Clear
10:15 AM 80.6 °F 82.7 °F 66.2 °F 61% 30.04 in - NE 4.6 mph - N/A   Clear
10:45 AM 80.6 °F 82.7 °F 66.2 °F 61% 30.06 in - Variable 4.6 mph - N/A   Clear
11:00 AM 82 °F - 66 °F 48% 30.05 in 12 mi NE 4.6 mph - -  
11:15 AM 82.4 °F 84.6 °F 66.2 °F 58% 30.06 in 6.2 mi NE 4.6 mph - N/A   Partly Cloudy
11:45 AM 82.4 °F 84.6 °F 66.2 °F 58% 30.06 in 6.2 mi ENE 5.8 mph - N/A   Partly Cloudy
12:15 PM 82.4 °F 84.6 °F 66.2 °F 58% 30.06 in 6.2 mi NE 6.9 mph - N/A   Partly Cloudy
12:45 PM 82.4 °F 84.6 °F 66.2 °F 58% 30.06 in 6.2 mi ENE 6.9 mph - N/A   Partly Cloudy
1:15 PM 82.4 °F 84.6 °F 66.2 °F 58% 30.06 in 6.2 mi NE 8.1 mph - N/A   Partly Cloudy
1:45 PM 82.4 °F 84.6 °F 66.2 °F 58% 30.06 in 6.2 mi ENE 6.9 mph - N/A   Partly Cloudy
2:00 PM 83 °F - 65 °F 46% 30.05 in 12 mi ENE 6.9 mph - -  
2:15 PM 82.4 °F 84.6 °F 66.2 °F 58% 30.06 in 6.2 mi NE 8.1 mph - N/A   Partly Cloudy
2:45 PM 82.4 °F 84.6 °F 66.2 °F 58% 30.04 in 6.2 mi NE 8.1 mph - N/A   Partly Cloudy
3:15 PM 82.4 °F 85.4 °F 68.0 °F 62% 30.04 in - NE 6.9 mph - N/A   Clear
3:45 PM 82.4 °F 86.3 °F 69.8 °F 66% 30.04 in 6.2 mi ENE 6.9 mph - N/A   Partly Cloudy
4:15 PM 82.4 °F 86.3 °F 69.8 °F 66% 30.04 in 6.2 mi NE 5.8 mph - N/A   Partly Cloudy
4:45 PM 82.4 °F 86.3 °F 69.8 °F 66% 30.04 in 6.2 mi Variable 4.6 mph - N/A   Partly Cloudy
5:00 PM 83 °F - 69 °F 55% 30.04 in 9 mi ENE 2.3 mph - -   Partly Cloudy
5:15 PM 82.4 °F 86.3 °F 69.8 °F 66% 30.04 in 6.2 mi SSE 5.8 mph - N/A   Scattered Clouds
5:45 PM 82.4 °F 85.4 °F 68.0 °F 62% 30.04 in 6.2 mi SW 5.8 mph - N/A   Partly Cloudy
6:15 PM 80.6 °F 83.2 °F 68.0 °F 65% 30.06 in 6.2 mi SW 3.5 mph - N/A   Partly Cloudy
6:45 PM 80.6 °F 83.2 °F 68.0 °F 65% 30.06 in 6.2 mi WSW 3.5 mph - N/A   Partly Cloudy
7:15 PM 78.8 °F - 68.0 °F 69% 30.06 in 6.2 mi SW 3.5 mph - N/A   Partly Cloudy
7:45 PM 77.0 °F - 68.0 °F 74% 30.06 in 6.2 mi WSW 2.3 mph - N/A   Partly Cloudy
8:00 PM 77 °F - 68 °F 66% 30.06 in 12 mi WSW 1.2 mph - -  
8:15 PM 77.0 °F - 68.0 °F 74% 30.06 in - Variable 2.3 mph - N/A   Clear
8:45 PM 77.0 °F - 68.0 °F 74% 30.06 in - Variable 2.3 mph - N/A   Clear
9:15 PM 75.2 °F - 68.0 °F 78% 30.09 in - SE 3.5 mph - N/A   Clear
9:45 PM 75.2 °F - 68.0 °F 78% 30.09 in - Variable 1.2 mph - N/A   Clear
10:15 PM 75.2 °F - 68.0 °F 78% 30.09 in - Variable 1.2 mph - N/A   Clear
10:45 PM 75.2 °F - 68.0 °F 78% 30.09 in - East 2.3 mph - N/A   Clear
11:00 PM 75 °F - 67 °F 71% 30.10 in 9 mi ESE 2.3 mph - -  
11:15 PM 73.4 °F - 68.0 °F 83% 30.09 in - Variable 2.3 mph - N/A   Clear
11:45 PM 73.4 °F - 68.0 °F 83% 30.09 in 6.2 mi WNW 2.3 mph - N/A   Haze